owner,sensor,date,latitude,longitude,vertical_datum,sea_water_temperature,qcFlag
Enven,ioos:station:wmo:42362:1,2022-06-01T00:04:00Z,27.7950,-90.6470,12.0,39.6,11133222
Enven,ioos:station:wmo:42362:1,2022-06-01T00:13:00Z,27.7950,-90.6470,12.0,39.6,11133222
Enven,ioos:station:wmo:42362:1,2022-06-01T00:23:00Z,27.7950,-90.6470,12.0,39.7,11133222
Enven,ioos:station:wmo:42362:1,2022-06-01T00:34:00Z,27.7950,-90.6470,12.0,39.7,11133222
Enven,ioos:station:wmo:42362:1,2022-06-01T00:44:00Z,27.7950,-90.6470,12.0,39.6,11133222
Enven,ioos:station:wmo:42362:1,2022-06-01T00:54:00Z,27.7950,-90.6470,12.0,39.6,11133222
Enven,ioos:station:wmo:42362:1,2022-06-01T01:03:00Z,27.7950,-90.6470,12.0,39.6,11133222
Enven,ioos:station:wmo:42362:1,2022-06-01T01:13:00Z,27.7950,-90.6470,12.0,39.6,11133222
Enven,ioos:station:wmo:42362:1,2022-06-01T01:24:00Z,27.7950,-90.6470,12.0,39.6,11133222
Enven,ioos:station:wmo:42362:1,2022-06-01T01:34:00Z,27.7950,-90.6470,12.0,39.5,11133222
Enven,ioos:station:wmo:42362:1,2022-06-01T01:44:00Z,27.7950,-90.6470,12.0,39.5,11133222
Enven,ioos:station:wmo:42362:1,2022-06-01T01:54:00Z,27.7950,-90.6470,12.0,39.4,11133222
Enven,ioos:station:wmo:42362:1,2022-06-01T02:03:00Z,27.7950,-90.6470,12.0,39.5,11133222
Enven,ioos:station:wmo:42362:1,2022-06-01T02:14:00Z,27.7950,-90.6470,12.0,39.5,11133222
Enven,ioos:station:wmo:42362:1,2022-06-01T02:24:00Z,27.7950,-90.6470,12.0,39.6,11133222
Enven,ioos:station:wmo:42362:1,2022-06-01T02:34:00Z,27.7950,-90.6470,12.0,39.6,11133222
Enven,ioos:station:wmo:42362:1,2022-06-01T02:44:00Z,27.7950,-90.6470,12.0,39.5,11133222
Enven,ioos:station:wmo:42362:1,2022-06-01T02:53:00Z,27.7950,-90.6470,12.0,39.5,11133222
Enven,ioos:station:wmo:42362:1,2022-06-01T03:04:00Z,27.7950,-90.6470,12.0,39.4,11133222
Enven,ioos:station:wmo:42362:1,2022-06-01T03:14:00Z,27.7950,-90.6470,12.0,39.3,11133222
Enven,ioos:station:wmo:42362:1,2022-06-01T03:24:00Z,27.7950,-90.6470,12.0,39.3,11133222
Enven,ioos:station:wmo:42362:1,2022-06-01T03:34:00Z,27.7950,-90.6470,12.0,39.2,11133222
Enven,ioos:station:wmo:42362:1,2022-06-01T03:44:00Z,27.7950,-90.6470,12.0,39.0,11133222
Enven,ioos:station:wmo:42362:1,2022-06-01T03:54:00Z,27.7950,-90.6470,12.0,39.2,11133222
Enven,ioos:station:wmo:42362:1,2022-06-01T04:04:00Z,27.7950,-90.6470,12.0,39.3,11133222
Enven,ioos:station:wmo:42362:1,2022-06-01T04:13:00Z,27.7950,-90.6470,12.0,39.5,11133222
Enven,ioos:station:wmo:42362:1,2022-06-01T04:23:00Z,27.7950,-90.6470,12.0,39.7,11133222
Enven,ioos:station:wmo:42362:1,2022-06-01T04:34:00Z,27.7950,-90.6470,12.0,39.8,11133222
Enven,ioos:station:wmo:42362:1,2022-06-01T04:44:00Z,27.7950,-90.6470,12.0,39.8,11133222
Enven,ioos:station:wmo:42362:1,2022-06-01T04:54:00Z,27.7950,-90.6470,12.0,39.3,11133222
Enven,ioos:station:wmo:42362:1,2022-06-01T05:03:00Z,27.7950,-90.6470,12.0,39.3,11133222
Enven,ioos:station:wmo:42362:1,2022-06-01T05:13:00Z,27.7950,-90.6470,12.0,39.6,11133222
Enven,ioos:station:wmo:42362:1,2022-06-01T05:24:00Z,27.7950,-90.6470,12.0,39.5,11133222
Enven,ioos:station:wmo:42362:1,2022-06-01T05:34:00Z,27.7950,-90.6470,12.0,39.7,11133222
Enven,ioos:station:wmo:42362:1,2022-06-01T05:44:00Z,27.7950,-90.6470,12.0,39.7,11133222
Enven,ioos:station:wmo:42362:1,2022-06-01T05:53:00Z,27.7950,-90.6470,12.0,39.6,11133222
Enven,ioos:station:wmo:42362:1,2022-06-01T06:03:00Z,27.7950,-90.6470,12.0,39.6,11133222
Enven,ioos:station:wmo:42362:1,2022-06-01T06:14:00Z,27.7950,-90.6470,12.0,39.6,11133222
Enven,ioos:station:wmo:42362:1,2022-06-01T06:24:00Z,27.7950,-90.6470,12.0,39.6,11133222
Enven,ioos:station:wmo:42362:1,2022-06-01T06:34:00Z,27.7950,-90.6470,12.0,39.5,11133222
Enven,ioos:station:wmo:42362:1,2022-06-01T06:43:00Z,27.7950,-90.6470,12.0,39.3,11133222
Enven,ioos:station:wmo:42362:1,2022-06-01T06:53:00Z,27.7950,-90.6470,12.0,39.5,11133222
Enven,ioos:station:wmo:42362:1,2022-06-01T07:04:00Z,27.7950,-90.6470,12.0,39.7,11133222
Enven,ioos:station:wmo:42362:1,2022-06-01T07:14:00Z,27.7950,-90.6470,12.0,39.8,11133222
Enven,ioos:station:wmo:42362:1,2022-06-01T07:24:00Z,27.7950,-90.6470,12.0,39.7,11133222
Enven,ioos:station:wmo:42362:1,2022-06-01T07:34:00Z,27.7950,-90.6470,12.0,39.8,11133222
Enven,ioos:station:wmo:42362:1,2022-06-01T07:43:00Z,27.7950,-90.6470,12.0,39.9,11133222
Enven,ioos:station:wmo:42362:1,2022-06-01T07:54:00Z,27.7950,-90.6470,12.0,39.9,11133222
Enven,ioos:station:wmo:42362:1,2022-06-01T08:04:00Z,27.7950,-90.6470,12.0,39.6,11133222
Enven,ioos:station:wmo:42362:1,2022-06-01T08:14:00Z,27.7950,-90.6470,12.0,39.6,11133222
Enven,ioos:station:wmo:42362:1,2022-06-01T08:24:00Z,27.7950,-90.6470,12.0,39.7,11133222
Enven,ioos:station:wmo:42362:1,2022-06-01T08:33:00Z,27.7950,-90.6470,12.0,39.6,11133222
Enven,ioos:station:wmo:42362:1,2022-06-01T08:44:00Z,27.7950,-90.6470,12.0,39.5,11133222
Enven,ioos:station:wmo:42362:1,2022-06-01T08:54:00Z,27.7950,-90.6470,12.0,39.4,11133222
Enven,ioos:station:wmo:42362:1,2022-06-01T09:04:00Z,27.7950,-90.6470,12.0,39.5,11133222
Enven,ioos:station:wmo:42362:1,2022-06-01T09:14:00Z,27.7950,-90.6470,12.0,39.5,11133222
Enven,ioos:station:wmo:42362:1,2022-06-01T09:23:00Z,27.7950,-90.6470,12.0,39.5,11133222
Enven,ioos:station:wmo:42362:1,2022-06-01T09:34:00Z,27.7950,-90.6470,12.0,39.5,11133222
Enven,ioos:station:wmo:42362:1,2022-06-01T09:44:00Z,27.7950,-90.6470,12.0,39.6,11133222
Enven,ioos:station:wmo:42362:1,2022-06-01T09:53:00Z,27.7950,-90.6470,12.0,39.7,11133222
Enven,ioos:station:wmo:42362:1,2022-06-01T10:03:00Z,27.7950,-90.6470,12.0,39.7,11133222
Enven,ioos:station:wmo:42362:1,2022-06-01T10:14:00Z,27.7950,-90.6470,12.0,39.8,11133222
Enven,ioos:station:wmo:42362:1,2022-06-01T10:24:00Z,27.7950,-90.6470,12.0,39.8,11133222
Enven,ioos:station:wmo:42362:1,2022-06-01T10:34:00Z,27.7950,-90.6470,12.0,39.8,11133222
Enven,ioos:station:wmo:42362:1,2022-06-01T10:43:00Z,27.7950,-90.6470,12.0,39.8,11133222
Enven,ioos:station:wmo:42362:1,2022-06-01T10:53:00Z,27.7950,-90.6470,12.0,39.8,11133222
Enven,ioos:station:wmo:42362:1,2022-06-01T11:04:00Z,27.7950,-90.6470,12.0,39.6,11133222
Enven,ioos:station:wmo:42362:1,2022-06-01T11:14:00Z,27.7950,-90.6470,12.0,39.7,11133222
Enven,ioos:station:wmo:42362:1,2022-06-01T11:24:00Z,27.7950,-90.6470,12.0,39.5,11133222
Enven,ioos:station:wmo:42362:1,2022-06-01T11:33:00Z,27.7950,-90.6470,12.0,39.6,11133222
Enven,ioos:station:wmo:42362:1,2022-06-01T11:43:00Z,27.7950,-90.6470,12.0,39.7,11133222
Enven,ioos:station:wmo:42362:1,2022-06-01T11:54:00Z,27.7950,-90.6470,12.0,39.9,11133222
Enven,ioos:station:wmo:42362:1,2022-06-01T12:04:00Z,27.7950,-90.6470,12.0,40.0,11133222
Enven,ioos:station:wmo:42362:1,2022-06-01T12:14:00Z,27.7950,-90.6470,12.0,40.0,11133222
Enven,ioos:station:wmo:42362:1,2022-06-01T12:23:00Z,27.7950,-90.6470,12.0,39.9,11133222
Enven,ioos:station:wmo:42362:1,2022-06-01T12:33:00Z,27.7950,-90.6470,12.0,39.9,11133222
Enven,ioos:station:wmo:42362:1,2022-06-01T12:44:00Z,27.7950,-90.6470,12.0,40.0,11133222
Enven,ioos:station:wmo:42362:1,2022-06-01T12:54:00Z,27.7950,-90.6470,12.0,39.9,11133222
Enven,ioos:station:wmo:42362:1,2022-06-01T13:04:00Z,27.7950,-90.6470,12.0,39.8,11133222
Enven,ioos:station:wmo:42362:1,2022-06-01T13:14:00Z,27.7950,-90.6470,12.0,39.9,11133222
Enven,ioos:station:wmo:42362:1,2022-06-01T13:23:00Z,27.7950,-90.6470,12.0,39.9,11133222
Enven,ioos:station:wmo:42362:1,2022-06-01T13:34:00Z,27.7950,-90.6470,12.0,39.9,11133222
Enven,ioos:station:wmo:42362:1,2022-06-01T13:44:00Z,27.7950,-90.6470,12.0,39.9,11133222
Enven,ioos:station:wmo:42362:1,2022-06-01T13:54:00Z,27.7950,-90.6470,12.0,39.8,11133222
Enven,ioos:station:wmo:42362:1,2022-06-01T14:04:00Z,27.7950,-90.6470,12.0,39.8,11133222
Enven,ioos:station:wmo:42362:1,2022-06-01T14:13:00Z,27.7950,-90.6470,12.0,39.7,11133222
Enven,ioos:station:wmo:42362:1,2022-06-01T14:24:00Z,27.7950,-90.6470,12.0,39.8,11133222
Enven,ioos:station:wmo:42362:1,2022-06-01T14:34:00Z,27.7950,-90.6470,12.0,39.8,11133222
Enven,ioos:station:wmo:42362:1,2022-06-01T14:44:00Z,27.7950,-90.6470,12.0,39.8,11133222
Enven,ioos:station:wmo:42362:1,2022-06-01T14:54:00Z,27.7950,-90.6470,12.0,39.8,11133222
Enven,ioos:station:wmo:42362:1,2022-06-01T15:03:00Z,27.7950,-90.6470,12.0,39.8,11133222
Enven,ioos:station:wmo:42362:1,2022-06-01T15:14:00Z,27.7950,-90.6470,12.0,39.8,11133222
Enven,ioos:station:wmo:42362:1,2022-06-01T15:24:00Z,27.7950,-90.6470,12.0,39.8,11133222
Enven,ioos:station:wmo:42362:1,2022-06-01T15:34:00Z,27.7950,-90.6470,12.0,39.8,11133222
Enven,ioos:station:wmo:42362:1,2022-06-01T15:44:00Z,27.7950,-90.6470,12.0,39.8,11133222
Enven,ioos:station:wmo:42362:1,2022-06-01T15:54:00Z,27.7950,-90.6470,12.0,39.8,11133222
Enven,ioos:station:wmo:42362:1,2022-06-01T16:04:00Z,27.7950,-90.6470,12.0,39.7,11133222
Enven,ioos:station:wmo:42362:1,2022-06-01T16:14:00Z,27.7950,-90.6470,12.0,39.8,11133222
Enven,ioos:station:wmo:42362:1,2022-06-01T16:23:00Z,27.7950,-90.6470,12.0,39.8,11133222
Enven,ioos:station:wmo:42362:1,2022-06-01T16:33:00Z,27.7950,-90.6470,12.0,39.8,11133222
Enven,ioos:station:wmo:42362:1,2022-06-01T16:44:00Z,27.7950,-90.6470,12.0,39.6,11133222
Enven,ioos:station:wmo:42362:1,2022-06-01T16:54:00Z,27.7950,-90.6470,12.0,39.5,11133222
Enven,ioos:station:wmo:42362:1,2022-06-01T17:04:00Z,27.7950,-90.6470,12.0,39.5,11133222
Enven,ioos:station:wmo:42362:1,2022-06-01T17:13:00Z,27.7950,-90.6470,12.0,39.5,11133222
Enven,ioos:station:wmo:42362:1,2022-06-01T17:23:00Z,27.7950,-90.6470,12.0,39.4,11133222
Enven,ioos:station:wmo:42362:1,2022-06-01T17:34:00Z,27.7950,-90.6470,12.0,39.5,11133222
Enven,ioos:station:wmo:42362:1,2022-06-01T17:44:00Z,27.7950,-90.6470,12.0,39.4,11133222
Enven,ioos:station:wmo:42362:1,2022-06-01T17:54:00Z,27.7950,-90.6470,12.0,39.4,11133222
Enven,ioos:station:wmo:42362:1,2022-06-01T18:03:00Z,27.7950,-90.6470,12.0,39.5,11133222
Enven,ioos:station:wmo:42362:1,2022-06-01T18:13:00Z,27.7950,-90.6470,12.0,39.3,11133222
Enven,ioos:station:wmo:42362:1,2022-06-01T18:24:00Z,27.7950,-90.6470,12.0,39.5,11133222
Enven,ioos:station:wmo:42362:1,2022-06-01T18:34:00Z,27.7950,-90.6470,12.0,39.5,11133222
Enven,ioos:station:wmo:42362:1,2022-06-01T18:44:00Z,27.7950,-90.6470,12.0,39.7,11133222
Enven,ioos:station:wmo:42362:1,2022-06-01T18:54:00Z,27.7950,-90.6470,12.0,39.6,11133222
Enven,ioos:station:wmo:42362:1,2022-06-01T19:03:00Z,27.7950,-90.6470,12.0,39.7,11133222
Enven,ioos:station:wmo:42362:1,2022-06-01T19:14:00Z,27.7950,-90.6470,12.0,39.8,11133222
Enven,ioos:station:wmo:42362:1,2022-06-01T19:24:00Z,27.7950,-90.6470,12.0,39.8,11133222
Enven,ioos:station:wmo:42362:1,2022-06-01T19:34:00Z,27.7950,-90.6470,12.0,39.8,11133222
Enven,ioos:station:wmo:42362:1,2022-06-01T19:44:00Z,27.7950,-90.6470,12.0,40.0,11133222
Enven,ioos:station:wmo:42362:1,2022-06-01T19:53:00Z,27.7950,-90.6470,12.0,39.8,11133222
Enven,ioos:station:wmo:42362:1,2022-06-01T20:04:00Z,27.7950,-90.6470,12.0,39.9,11133222
Enven,ioos:station:wmo:42362:1,2022-06-01T20:14:00Z,27.7950,-90.6470,12.0,39.9,11133222
Enven,ioos:station:wmo:42362:1,2022-06-01T20:24:00Z,27.7950,-90.6470,12.0,39.8,11133222
Enven,ioos:station:wmo:42362:1,2022-06-01T20:34:00Z,27.7950,-90.6470,12.0,39.7,11133222
Enven,ioos:station:wmo:42362:1,2022-06-01T20:43:00Z,27.7950,-90.6470,12.0,39.8,11133222
Enven,ioos:station:wmo:42362:1,2022-06-01T20:54:00Z,27.7950,-90.6470,12.0,39.9,11133222
Enven,ioos:station:wmo:42362:1,2022-06-01T21:04:00Z,27.7950,-90.6470,12.0,39.8,11133222
Enven,ioos:station:wmo:42362:1,2022-06-01T21:13:00Z,27.7950,-90.6470,12.0,39.8,11133222
Enven,ioos:station:wmo:42362:1,2022-06-01T21:23:00Z,27.7950,-90.6470,12.0,39.5,11133222
Enven,ioos:station:wmo:42362:1,2022-06-01T21:34:00Z,27.7950,-90.6470,12.0,39.5,11133222
Enven,ioos:station:wmo:42362:1,2022-06-01T21:44:00Z,27.7950,-90.6470,12.0,39.5,11133222
Enven,ioos:station:wmo:42362:1,2022-06-01T21:54:00Z,27.7950,-90.6470,12.0,39.9,11133222
Enven,ioos:station:wmo:42362:1,2022-06-01T22:03:00Z,27.7950,-90.6470,12.0,39.9,11133222
Enven,ioos:station:wmo:42362:1,2022-06-01T22:13:00Z,27.7950,-90.6470,12.0,40.0,11133222
Enven,ioos:station:wmo:42362:1,2022-06-01T22:24:00Z,27.7950,-90.6470,12.0,39.9,11133222
Enven,ioos:station:wmo:42362:1,2022-06-01T22:34:00Z,27.7950,-90.6470,12.0,40.0,11133222
Enven,ioos:station:wmo:42362:1,2022-06-01T22:44:00Z,27.7950,-90.6470,12.0,40.1,11144222
Enven,ioos:station:wmo:42362:1,2022-06-01T22:53:00Z,27.7950,-90.6470,12.0,40.1,11144222
Enven,ioos:station:wmo:42362:1,2022-06-01T23:03:00Z,27.7950,-90.6470,12.0,40.1,11144222
Enven,ioos:station:wmo:42362:1,2022-06-01T23:14:00Z,27.7950,-90.6470,12.0,40.1,11144222
Enven,ioos:station:wmo:42362:1,2022-06-01T23:24:00Z,27.7950,-90.6470,12.0,40.1,11144222
Enven,ioos:station:wmo:42362:1,2022-06-01T23:34:00Z,27.7950,-90.6470,12.0,40.1,11144222
Enven,ioos:station:wmo:42362:1,2022-06-01T23:43:00Z,27.7950,-90.6470,12.0,40.1,11144222
Enven,ioos:station:wmo:42362:1,2022-06-01T23:53:00Z,27.7950,-90.6470,12.0,40.1,11144222
Enven,ioos:station:wmo:42362:1,2022-06-02T00:04:00Z,27.7950,-90.6470,12.0,40.2,11144222
Enven,ioos:station:wmo:42362:1,2022-06-02T00:14:00Z,27.7950,-90.6470,12.0,40.1,11144222
Enven,ioos:station:wmo:42362:1,2022-06-02T00:24:00Z,27.7950,-90.6470,12.0,40.2,11144222
Enven,ioos:station:wmo:42362:1,2022-06-02T00:34:00Z,27.7950,-90.6470,12.0,40.2,11144222
Enven,ioos:station:wmo:42362:1,2022-06-02T00:43:00Z,27.7950,-90.6470,12.0,40.2,11144222
Enven,ioos:station:wmo:42362:1,2022-06-02T00:54:00Z,27.7950,-90.6470,12.0,40.1,11144222
Enven,ioos:station:wmo:42362:1,2022-06-02T01:04:00Z,27.7950,-90.6470,12.0,40.0,11144222
Enven,ioos:station:wmo:42362:1,2022-06-02T01:14:00Z,27.7950,-90.6470,12.0,40.0,11144222
Enven,ioos:station:wmo:42362:1,2022-06-02T01:24:00Z,27.7950,-90.6470,12.0,40.0,11133222
Enven,ioos:station:wmo:42362:1,2022-06-02T01:33:00Z,27.7950,-90.6470,12.0,40.0,11144222
Enven,ioos:station:wmo:42362:1,2022-06-02T01:44:00Z,27.7950,-90.6470,12.0,39.9,11133222
Enven,ioos:station:wmo:42362:1,2022-06-02T01:54:00Z,27.7950,-90.6470,12.0,39.8,11133222
Enven,ioos:station:wmo:42362:1,2022-06-02T02:04:00Z,27.7950,-90.6470,12.0,39.9,11133222
Enven,ioos:station:wmo:42362:1,2022-06-02T02:14:00Z,27.7950,-90.6470,12.0,39.8,11133222
Enven,ioos:station:wmo:42362:1,2022-06-02T02:23:00Z,27.7950,-90.6470,12.0,40.0,11133222
Enven,ioos:station:wmo:42362:1,2022-06-02T02:34:00Z,27.7950,-90.6470,12.0,39.9,11133222
Enven,ioos:station:wmo:42362:1,2022-06-02T02:44:00Z,27.7950,-90.6470,12.0,39.6,11133222
Enven,ioos:station:wmo:42362:1,2022-06-02T02:53:00Z,27.7950,-90.6470,12.0,39.6,11133222
Enven,ioos:station:wmo:42362:1,2022-06-02T03:03:00Z,27.7950,-90.6470,12.0,39.9,11133222
Enven,ioos:station:wmo:42362:1,2022-06-02T03:14:00Z,27.7950,-90.6470,12.0,40.1,11144222
Enven,ioos:station:wmo:42362:1,2022-06-02T03:24:00Z,27.7950,-90.6470,12.0,40.1,11144222
Enven,ioos:station:wmo:42362:1,2022-06-02T03:34:00Z,27.7950,-90.6470,12.0,40.1,11144222
Enven,ioos:station:wmo:42362:1,2022-06-02T03:43:00Z,27.7950,-90.6470,12.0,40.1,11144222
Enven,ioos:station:wmo:42362:1,2022-06-02T03:53:00Z,27.7950,-90.6470,12.0,40.2,11144222
Enven,ioos:station:wmo:42362:1,2022-06-02T04:04:00Z,27.7950,-90.6470,12.0,40.2,11144222
Enven,ioos:station:wmo:42362:1,2022-06-02T04:14:00Z,27.7950,-90.6470,12.0,40.2,11144222
Enven,ioos:station:wmo:42362:1,2022-06-02T04:24:00Z,27.7950,-90.6470,12.0,40.1,11144222
Enven,ioos:station:wmo:42362:1,2022-06-02T04:33:00Z,27.7950,-90.6470,12.0,40.0,11144222
Enven,ioos:station:wmo:42362:1,2022-06-02T04:43:00Z,27.7950,-90.6470,12.0,40.0,11144222
Enven,ioos:station:wmo:42362:1,2022-06-02T04:54:00Z,27.7950,-90.6470,12.0,40.1,11144222
Enven,ioos:station:wmo:42362:1,2022-06-02T05:04:00Z,27.7950,-90.6470,12.0,40.1,11144222
Enven,ioos:station:wmo:42362:1,2022-06-02T05:14:00Z,27.7950,-90.6470,12.0,40.1,11144222
Enven,ioos:station:wmo:42362:1,2022-06-02T05:23:00Z,27.7950,-90.6470,12.0,40.0,11144222
Enven,ioos:station:wmo:42362:1,2022-06-02T05:33:00Z,27.7950,-90.6470,12.0,40.0,11133222
Enven,ioos:station:wmo:42362:1,2022-06-02T05:44:00Z,27.7950,-90.6470,12.0,39.9,11133222
Enven,ioos:station:wmo:42362:1,2022-06-02T05:54:00Z,27.7950,-90.6470,12.0,39.9,11133222
Enven,ioos:station:wmo:42362:1,2022-06-02T06:04:00Z,27.7950,-90.6470,12.0,39.9,11133222
Enven,ioos:station:wmo:42362:1,2022-06-02T06:14:00Z,27.7950,-90.6470,12.0,40.0,11144222
Enven,ioos:station:wmo:42362:1,2022-06-02T06:23:00Z,27.7950,-90.6470,12.0,39.8,11133222
Enven,ioos:station:wmo:42362:1,2022-06-02T06:34:00Z,27.7950,-90.6470,12.0,39.8,11133222
Enven,ioos:station:wmo:42362:1,2022-06-02T06:44:00Z,27.7950,-90.6470,12.0,39.8,11133222
Enven,ioos:station:wmo:42362:1,2022-06-02T06:54:00Z,27.7950,-90.6470,12.0,39.6,11133222
Enven,ioos:station:wmo:42362:1,2022-06-02T07:04:00Z,27.7950,-90.6470,12.0,39.8,11133222
Enven,ioos:station:wmo:42362:1,2022-06-02T07:13:00Z,27.7950,-90.6470,12.0,39.8,11133222
Enven,ioos:station:wmo:42362:1,2022-06-02T07:24:00Z,27.7950,-90.6470,12.0,39.8,11133222
Enven,ioos:station:wmo:42362:1,2022-06-02T07:34:00Z,27.7950,-90.6470,12.0,39.8,11133222
Enven,ioos:station:wmo:42362:1,2022-06-02T07:44:00Z,27.7950,-90.6470,12.0,39.8,11133222
Enven,ioos:station:wmo:42362:1,2022-06-02T07:54:00Z,27.7950,-90.6470,12.0,39.6,11133222
Enven,ioos:station:wmo:42362:1,2022-06-02T08:03:00Z,27.7950,-90.6470,12.0,39.6,11133222
Enven,ioos:station:wmo:42362:1,2022-06-02T08:14:00Z,27.7950,-90.6470,12.0,39.7,11133222
Enven,ioos:station:wmo:42362:1,2022-06-02T08:24:00Z,27.7950,-90.6470,12.0,39.8,11133222
Enven,ioos:station:wmo:42362:1,2022-06-02T08:33:00Z,27.7950,-90.6470,12.0,39.9,11133222
Enven,ioos:station:wmo:42362:1,2022-06-02T08:43:00Z,27.7950,-90.6470,12.0,39.9,11133222
Enven,ioos:station:wmo:42362:1,2022-06-02T08:54:00Z,27.7950,-90.6470,12.0,39.8,11133222
Enven,ioos:station:wmo:42362:1,2022-06-02T09:04:00Z,27.7950,-90.6470,12.0,39.9,11133222
Enven,ioos:station:wmo:42362:1,2022-06-02T09:14:00Z,27.7950,-90.6470,12.0,40.0,11133222
Enven,ioos:station:wmo:42362:1,2022-06-02T09:23:00Z,27.7950,-90.6470,12.0,40.0,11133222
Enven,ioos:station:wmo:42362:1,2022-06-02T09:33:00Z,27.7950,-90.6470,12.0,40.0,11133222
Enven,ioos:station:wmo:42362:1,2022-06-02T09:44:00Z,27.7950,-90.6470,12.0,40.0,11133222
Enven,ioos:station:wmo:42362:1,2022-06-02T09:54:00Z,27.7950,-90.6470,12.0,40.0,11133222
Enven,ioos:station:wmo:42362:1,2022-06-02T10:04:00Z,27.7950,-90.6470,12.0,40.1,11144222
Enven,ioos:station:wmo:42362:1,2022-06-02T10:13:00Z,27.7950,-90.6470,12.0,40.1,11144222
Enven,ioos:station:wmo:42362:1,2022-06-02T10:23:00Z,27.7950,-90.6470,12.0,40.0,11144222
Enven,ioos:station:wmo:42362:1,2022-06-02T10:34:00Z,27.7950,-90.6470,12.0,40.0,11144222
Enven,ioos:station:wmo:42362:1,2022-06-02T10:44:00Z,27.7950,-90.6470,12.0,40.1,11144222
Enven,ioos:station:wmo:42362:1,2022-06-02T10:54:00Z,27.7950,-90.6470,12.0,40.2,11144222
Enven,ioos:station:wmo:42362:1,2022-06-02T11:04:00Z,27.7950,-90.6470,12.0,40.1,11144222
Enven,ioos:station:wmo:42362:1,2022-06-02T11:13:00Z,27.7950,-90.6470,12.0,40.1,11144222
Enven,ioos:station:wmo:42362:1,2022-06-02T11:24:00Z,27.7950,-90.6470,12.0,40.2,11144222
Enven,ioos:station:wmo:42362:1,2022-06-02T11:34:00Z,27.7950,-90.6470,12.0,40.2,11144222
Enven,ioos:station:wmo:42362:1,2022-06-02T11:44:00Z,27.7950,-90.6470,12.0,40.2,11144222
Enven,ioos:station:wmo:42362:1,2022-06-02T11:54:00Z,27.7950,-90.6470,12.0,40.1,11144222
Enven,ioos:station:wmo:42362:1,2022-06-02T12:03:00Z,27.7950,-90.6470,12.0,40.2,11144222
Enven,ioos:station:wmo:42362:1,2022-06-02T12:14:00Z,27.7950,-90.6470,12.0,40.3,11144222
Enven,ioos:station:wmo:42362:1,2022-06-02T12:24:00Z,27.7950,-90.6470,12.0,40.3,11144222
Enven,ioos:station:wmo:42362:1,2022-06-02T12:34:00Z,27.7950,-90.6470,12.0,40.3,11144222
Enven,ioos:station:wmo:42362:1,2022-06-02T12:44:00Z,27.7950,-90.6470,12.0,40.4,11144222
Enven,ioos:station:wmo:42362:1,2022-06-02T12:53:00Z,27.7950,-90.6470,12.0,40.2,11144222
Enven,ioos:station:wmo:42362:1,2022-06-02T13:04:00Z,27.7950,-90.6470,12.0,40.0,11144222
Enven,ioos:station:wmo:42362:1,2022-06-02T13:14:00Z,27.7950,-90.6470,12.0,40.0,11133222
Enven,ioos:station:wmo:42362:1,2022-06-02T13:24:00Z,27.7950,-90.6470,12.0,39.9,11133222
Enven,ioos:station:wmo:42362:1,2022-06-02T13:34:00Z,27.7950,-90.6470,12.0,39.9,11133222
Enven,ioos:station:wmo:42362:1,2022-06-02T13:44:00Z,27.7950,-90.6470,12.0,39.8,11133222
Enven,ioos:station:wmo:42362:1,2022-06-02T13:54:00Z,27.7950,-90.6470,12.0,39.7,11133222
Enven,ioos:station:wmo:42362:1,2022-06-02T14:04:00Z,27.7950,-90.6470,12.0,39.7,11133222
Enven,ioos:station:wmo:42362:1,2022-06-02T14:13:00Z,27.7950,-90.6470,12.0,39.8,11133222
Enven,ioos:station:wmo:42362:1,2022-06-02T14:23:00Z,27.7950,-90.6470,12.0,39.8,11133222
Enven,ioos:station:wmo:42362:1,2022-06-02T14:34:00Z,27.7950,-90.6470,12.0,40.0,11133222
Enven,ioos:station:wmo:42362:1,2022-06-02T14:44:00Z,27.7950,-90.6470,12.0,39.9,11133222
Enven,ioos:station:wmo:42362:1,2022-06-02T14:54:00Z,27.7950,-90.6470,12.0,40.0,11144222
Enven,ioos:station:wmo:42362:1,2022-06-02T15:03:00Z,27.7950,-90.6470,12.0,40.0,11144222
Enven,ioos:station:wmo:42362:1,2022-06-02T15:13:00Z,27.7950,-90.6470,12.0,40.1,11144222
Enven,ioos:station:wmo:42362:1,2022-06-02T15:24:00Z,27.7950,-90.6470,12.0,40.2,11144222
Enven,ioos:station:wmo:42362:1,2022-06-02T15:34:00Z,27.7950,-90.6470,12.0,40.2,11144222
Enven,ioos:station:wmo:42362:1,2022-06-02T15:44:00Z,27.7950,-90.6470,12.0,40.0,11144222
Enven,ioos:station:wmo:42362:1,2022-06-02T15:53:00Z,27.7950,-90.6470,12.0,39.9,11133222
Enven,ioos:station:wmo:42362:1,2022-06-02T16:03:00Z,27.7950,-90.6470,12.0,40.0,11133222
Enven,ioos:station:wmo:42362:1,2022-06-02T16:14:00Z,27.7950,-90.6470,12.0,40.4,11144222
Enven,ioos:station:wmo:42362:1,2022-06-02T16:24:00Z,27.7950,-90.6470,12.0,40.6,11144222
Enven,ioos:station:wmo:42362:1,2022-06-02T16:34:00Z,27.7950,-90.6470,12.0,40.6,11144222
Enven,ioos:station:wmo:42362:1,2022-06-02T16:44:00Z,27.7950,-90.6470,12.0,40.7,11144222
Enven,ioos:station:wmo:42362:1,2022-06-02T16:53:00Z,27.7950,-90.6470,12.0,40.6,11144222
Enven,ioos:station:wmo:42362:1,2022-06-02T17:04:00Z,27.7950,-90.6470,12.0,40.6,11144222
Enven,ioos:station:wmo:42362:1,2022-06-02T17:14:00Z,27.7950,-90.6470,12.0,40.5,11144222
Enven,ioos:station:wmo:42362:1,2022-06-02T17:24:00Z,27.7950,-90.6470,12.0,40.5,11144222
Enven,ioos:station:wmo:42362:1,2022-06-02T17:34:00Z,27.7950,-90.6470,12.0,40.5,11144222
Enven,ioos:station:wmo:42362:1,2022-06-02T17:43:00Z,27.7950,-90.6470,12.0,40.5,11144222
Enven,ioos:station:wmo:42362:1,2022-06-02T17:54:00Z,27.7950,-90.6470,12.0,40.5,11144222
Enven,ioos:station:wmo:42362:1,2022-06-02T18:04:00Z,27.7950,-90.6470,12.0,40.4,11144222
Enven,ioos:station:wmo:42362:1,2022-06-02T18:14:00Z,27.7950,-90.6470,12.0,40.5,11144222
Enven,ioos:station:wmo:42362:1,2022-06-02T18:24:00Z,27.7950,-90.6470,12.0,40.5,11144222
Enven,ioos:station:wmo:42362:1,2022-06-02T18:33:00Z,27.7950,-90.6470,12.0,40.5,11144222
Enven,ioos:station:wmo:42362:1,2022-06-02T18:44:00Z,27.7950,-90.6470,12.0,40.5,11144222
Enven,ioos:station:wmo:42362:1,2022-06-02T18:54:00Z,27.7950,-90.6470,12.0,40.5,11144222
Enven,ioos:station:wmo:42362:1,2022-06-02T19:03:00Z,27.7950,-90.6470,12.0,40.5,11144222
Enven,ioos:station:wmo:42362:1,2022-06-02T19:13:00Z,27.7950,-90.6470,12.0,40.5,11144222
Enven,ioos:station:wmo:42362:1,2022-06-02T19:24:00Z,27.7950,-90.6470,12.0,40.6,11144222
Enven,ioos:station:wmo:42362:1,2022-06-02T19:34:00Z,27.7950,-90.6470,12.0,40.6,11144222
Enven,ioos:station:wmo:42362:1,2022-06-02T19:44:00Z,27.7950,-90.6470,12.0,40.7,11144222
Enven,ioos:station:wmo:42362:1,2022-06-02T19:53:00Z,27.7950,-90.6470,12.0,40.7,11144222
Enven,ioos:station:wmo:42362:1,2022-06-02T20:03:00Z,27.7950,-90.6470,12.0,40.7,11144222
Enven,ioos:station:wmo:42362:1,2022-06-02T20:14:00Z,27.7950,-90.6470,12.0,40.7,11144222
Enven,ioos:station:wmo:42362:1,2022-06-02T20:24:00Z,27.7950,-90.6470,12.0,40.7,11144222
Enven,ioos:station:wmo:42362:1,2022-06-02T20:34:00Z,27.7950,-90.6470,12.0,40.7,11144222